Aérodrome :
LOGIN :

S'inscrire | Disclaimer

   EN    FR    IT 

 










Légende :    VFR   VFR Marginal   IFR   IFR Intensif   IFR Très Intensif
Visi : 
Plafond : 
>= 8 km
>= 3000ft
5 à 8 km
1000 à 3000 ft
1500m à 5 km
500 à 1000 ft
800 à 1500m
200 à 500 ft
< 800m
< 200 ft
Symboles :   Orages  Brouillard  Fortes neiges  Fortes précipitations  Vent > 20 kt
SIGMETs :   Divers  Orages  Givrage  Turbulence  Onde Orograph.  Cendres Volcan.







- Altitude de l'aérodrome : 1234 ft
- Code IATA : LUX


ELLX - Luxembourg Findel

DERNIER METAR :
  • 191050Z 17007KT 140V200 CAVOK 16/11 Q1013 NOSIG

METARs EXPIRÉS :
  • 191020Z 19006KT 160V220 CAVOK 16/11 Q1013 NOSIG
  • 190950Z 17007KT CAVOK 15/10 Q1013 NOSIG
  • 190920Z 16006KT 130V210 CAVOK 14/11 Q1013 NOSIG
  • 190850Z 14004KT 110V170 CAVOK 13/10 Q1013 NOSIG
  • 190820Z 13004KT 8000 NSC 12/09 Q1013 NOSIG

TAF TAF ELLX
Valide du 19 à 06h jusqu'au 20 à 12h UTC


190500Z 1906/2012 06005KT 3500 BR NSC
BECMG 1906/1908 15006KT CAVOK
BECMG 2003/2005 BKN030
TEMPO 2005/2012 7000 -RA SCT012 BKN020
ATIS : +352 4798 27300
Météo : +352 4798 27010 / 27050
Pas de NOTAMs connus pour ce terrain.



MET'MAP, la Météo Aéronautique d'un coup d'oeil ! - Copyright ORBIFLY Décembre 2007 - Disclaimer

ORBIFLY MET'MAP TEAM :

Programmation & Développement : Alexandra Zaïnal
Conception & Développement : Baudouin d'Aumeries
Co-Programmation & Développement : Marc-Olivier Méhu
Soutien technique & logistique : Manuel Goepfert

Contact : metmap@orbifly.com




SOURCES & CREDITS :

   NOAA